Starlink 34662

operational
NORAD ID: 64799 Int'l Des: 2025-150 Owner: SPXS Country: US Constellation: starlink
LEOCIRCULAR

Über Starlink 34662

Beschreibung wird geladen...

Live-Position

3D-Globus wird geladen...

Nächste Überflüge

Höhenverlauf

Altitude vs Time

uPlot chart will show altitude changes over time

Zweizeiliger Elementsatz

1 64799U 25150K 25340.88829209 .00062232 00000-0 14118-2 0 9990
2 64799 69.9993 9.7315 0002834 263.1574 96.9285 15.42739423 22588
Epoch: 6. Dez. 2025 • Age: 9 hours

Aktueller Status

Höhe 440.7 km
Geschwindigkeit 7.65 km/s
Subsatellitenpunkt -1.24°S, 167.81°W
Startdatum 16. Juli 2025
Alter 0.3 years
Typ internet

Technische Details

Klassifizierung Payload
Masse 575.00 kg
Trockenmasse 530.00 kg
Gesamtmasse 575.00 kg
Länge 0.30 m
Durchmesser 4.10 m
Spannweite 29.00 m
Form Box + pan
Hersteller SPXS
Bus-Typ Starlink V2MO
Phasenstatus In Orbit
Besitzer/Staat SPXS/US

Große Konstellationen

Loading constellations...